Terug naar catalogus

TIANFU DONGPO 10

ActiefCommunicatieSSO
NORAD 54689·PAYLOAD·🇨🇳 China
Deze satellietnaam is nog niet bevestigd door officiële bronnen.

Gelanceerd Dec 9, 2022 vanaf Yellow Sea Launch Area

Loading…

Volgende Passages (komende 24 uur)

TLE

VersSource: Space-Track

Epoch: Sep 14, 2026, 14:58 UTC

1 54689U 22167H   26257.62422257  .00008537  00000-0  24571-3 0  9997
2 54689  97.7015  71.7023 0005457 141.5404 218.6229 15.36024914209087

Volg TIANFU DONGPO 10 in realtime met AllMySat

Download on the App Store